Flag for Germany Weather past 2 weeks in Hamburg, Hamburg, Germany

57 °F

Partly sunny.

Feels Like: 54 °F
Forecast: 57 / 60 °F
Wind: 14 mph from Southeast

Location: Hamburg-Fuhlsbuettel

Current Time: Oct 6, 2015 at 5:31:42 PM

Latest Report: Oct 6, 2015 at 4:50 PM

Visibility: 4 mi

Pressure: 29.71 "Hg

Humidity: 88%

Dew point: 54 °F

Location of HamburgLocation

Historic Weather in Hamburg — Graph


Hamburg temperature yesterday

Maximum temperature yesterday: 66 °F (at 1:50 PM)
Minimum temperature yesterday: 45 °F (at 1:20 AM)
Average temperature yesterday: 55 °F

Past Weeks' High & Low Weather Summary

High66 °F (Oct 3, 3:20 PM)100% (Sep 22, 10:20 PM)30.72 "Hg (Sep 22, 10:20 PM)
Low37 °F (Sep 29, 5:20 AM)49% (Oct 3, 3:20 PM)29.53 "Hg (Sep 22, 4:50 PM)
Average53 °F85%30.18 "Hg
* Reported Sep 21 4:20 PM — Oct 6 4:20 PM, Hamburg, Weather by CustomWeather, © 2015

Note: Actual official high and low records may vary slightly from our data, if they occured in-between our weather recording intervals... More about our weather records


Hamburg weather history for previous 24 hours

Time TempWeatherWind HumidityBarometerVisibility
4:20 PM
Tue, Oct 6
57 °FPartly sunny.16 mph88%29.71 "Hg4 mi
3:50 PM57 °FDrizzle. Partly sunny.16 mph88%29.71 "Hg3 mi
3:20 PM57 °FDrizzle. Partly sunny.16 mph88%29.71 "Hg4 mi
2:50 PM57 °FDrizzle. Partly sunny.15 mph88%29.71 "Hg4 mi
2:20 PM57 °FDrizzle. Partly sunny.16 mph88%29.71 "Hg4 mi
1:50 PM59 °FMore clouds than sun.16 mph77%29.71 "HgN/A
1:20 PM59 °FBroken clouds.16 mph77%29.71 "Hg5 mi
12:50 PM59 °FBroken clouds.18 mph77%29.71 "Hg5 mi
12:20 PM57 °FPartly sunny.16 mph82%29.71 "Hg5 mi
11:50 AM57 °FLight rain. Partly sunny.16 mph82%29.71 "Hg5 mi
11:20 AM55 °FLight rain. Clear.14 mph88%29.74 "Hg5 mi
10:50 AM55 °FLight rain. Partly sunny.15 mph88%29.74 "Hg5 mi
10:20 AM55 °FClear.14 mph82%29.74 "Hg6 mi
9:50 AM55 °FLight rain. Clear.14 mph82%29.74 "Hg6 mi
9:20 AM55 °FLight rain. Clear.16 mph82%29.74 "Hg6 mi
8:50 AM55 °FClear.15 mph82%29.77 "Hg6 mi
8:20 AM54 °FClear.15 mph82%29.77 "Hg6 mi
7:50 AM54 °FClear.14 mph82%29.77 "Hg6 mi
7:20 AM54 °FClear.15 mph82%29.77 "Hg6 mi
6:20 AM54 °FClear.13 mph82%29.80 "Hg5 mi
5:50 AM54 °FClear.14 mph82%29.80 "Hg5 mi
5:20 AM54 °FClear.12 mph82%29.80 "Hg5 mi
4:50 AM54 °FClear.13 mph88%29.80 "Hg5 mi
4:20 AM54 °FClear.10 mph88%29.83 "Hg5 mi
3:50 AM55 °FPassing clouds.9 mph82%29.83 "Hg4 mi
3:20 AM55 °FPassing clouds.9 mph82%29.83 "Hg4 mi
2:50 AM54 °FPassing clouds.10 mph88%29.86 "Hg4 mi
2:20 AM54 °FPassing clouds.8 mph88%29.86 "Hg5 mi
1:50 AM54 °FClear.9 mph88%29.86 "Hg5 mi
1:20 AM55 °FPassing clouds.10 mph82%29.86 "HgN/A
12:50 AM55 °FClear.9 mph82%29.89 "Hg10 mi
12:20 AM55 °FClear.9 mph82%29.89 "Hg10 mi
11:50 PM
Mon, Oct 5
55 °FClear.9 mph82%29.89 "Hg10 mi
11:20 PM55 °FPassing clouds.9 mph82%29.89 "HgN/A
10:50 PM57 °FClear.12 mph77%29.89 "Hg10 mi
10:20 PM57 °FPassing clouds.9 mph77%29.92 "HgN/A
9:50 PM57 °FClear.10 mph77%29.92 "Hg10 mi
9:20 PM57 °FClear.10 mph77%29.92 "Hg10 mi
8:50 PM59 °FClear.10 mph72%29.92 "Hg10 mi
8:20 PM57 °FClear.10 mph82%29.92 "Hg10 mi
7:50 PM59 °FClear.7 mph77%29.95 "Hg10 mi
7:20 PM61 °FSunny.7 mph72%29.95 "Hg10 mi
6:50 PM61 °FPassing clouds.8 mph72%29.95 "HgN/A
6:20 PM63 °FSunny.10 mph68%29.92 "Hg10 mi
5:50 PM63 °FSunny.9 mph68%29.92 "Hg10 mi
5:20 PM64 °FSunny.9 mph64%29.95 "Hg10 mi
Weather by CustomWeather, © 2015

See weather overviewHow to use our weather pages